• In Deutschland
  • Länderverzeichnis
  • Für 7 Tage
  • Wassertemperatur
  • Satellitenkarten
  • Wetterkarte
  • Widgets
  • user-avatar
    Anmelden

    Stündliche Wetter Hamburg

    Heute, 25 September, Dienstag

    Zeit Temperatur Niederschläge Wind Luftdruck Luftfeuchtigkeit
    00:00 +5°C° 0 mm 3 m/S 773 mmHg 78%
    01:00 +6°C° 0 mm 2 m/S 774 mmHg 84%
    02:00 +5°C° 0 mm 2 m/S 774 mmHg 85%
    03:00 +5°C° 0 mm 2 m/S 774 mmHg 86%
    04:00 +5°C° 0 mm 2 m/S 775 mmHg 87%
    05:00 +5°C° 0 mm 2 m/S 775 mmHg 87%
    06:00 +6°C° 0 mm 2 m/S 775 mmHg 87%
    07:00 +6°C° 0 mm 2 m/S 776 mmHg 84%
    08:00 +8°C° 0 mm 2 m/S 776 mmHg 76%
    09:00 +10°C° 0 mm 2 m/S 776 mmHg 67%
    10:00 +13°C° 0 mm 2 m/S 777 mmHg 58%
    11:00 +14°C° 0 mm 2 m/S 777 mmHg 54%
    12:00 +15°C° 0 mm 2 m/S 777 mmHg 51%
    13:00 +15°C° 0 mm 2 m/S 777 mmHg 50%
    14:00 +15°C° 0 mm 2 m/S 777 mmHg 50%
    15:00 +15°C° 0 mm 2 m/S 777 mmHg 51%
    16:00 +14°C° 0 mm 3 m/S 776 mmHg 51%
    17:00 +14°C° 0 mm 2 m/S 776 mmHg 58%
    18:00 +12°C° 0 mm 2 m/S 776 mmHg 65%
    19:00 +11°C° 0 mm 1 m/S 776 mmHg 71%
    20:00 +9°C° 0 mm 2 m/S 776 mmHg 74%
    21:00 +9°C° 0 mm 2 m/S 776 mmHg 77%
    22:00 +8°C° 0 mm 2 m/S 776 mmHg 80%
    23:00 +8°C° 0 mm 2 m/S 776 mmHg 80%

    Morgen, 26 September, Mittwoch

    Zeit Temperatur Niederschläge Wind Luftdruck Luftfeuchtigkeit
    00:00 +8°C° 0 mm 3 m/S 775 mmHg 81%
    01:00 +8°C° 0 mm 3 m/S 775 mmHg 81%
    02:00 +8°C° 0 mm 3 m/S 775 mmHg 78%
    03:00 +8°C° 0 mm 4 m/S 774 mmHg 75%
    04:00 +8°C° 0 mm 4 m/S 774 mmHg 71%
    05:00 +8°C° 0 mm 4 m/S 774 mmHg 70%
    06:00 +8°C° 0 mm 5 m/S 773 mmHg 69%
    07:00 +8°C° 0 mm 5 m/S 773 mmHg 68%
    08:00 +9°C° 0 mm 6 m/S 773 mmHg 63%
    09:00 +11°C° 0 mm 6 m/S 772 mmHg 57%
    10:00 +14°C° 0 mm 7 m/S 772 mmHg 52%
    11:00 +15°C° 0 mm 7 m/S 772 mmHg 50%
    12:00 +16°C° 0 mm 7 m/S 771 mmHg 48%
    13:00 +17°C° 0 mm 8 m/S 771 mmHg 46%
    14:00 +17°C° 0 mm 7 m/S 770 mmHg 47%
    15:00 +17°C° 0 mm 7 m/S 770 mmHg 49%
    16:00 +18°C° 0 mm 7 m/S 770 mmHg 50%
    17:00 +17°C° 0 mm 7 m/S 770 mmHg 55%
    18:00 +16°C° 0 mm 6 m/S 770 mmHg 60%
    19:00 +15°C° 0 mm 5 m/S 770 mmHg 64%
    20:00 +14°C° 0 mm 5 m/S 770 mmHg 68%
    21:00 +14°C° 0 mm 5 m/S 770 mmHg 71%
    22:00 +14°C° 0 mm 5 m/S 770 mmHg 74%
    23:00 +13°C° 0 mm 5 m/S 770 mmHg 77%

    übermorgen, 27 September, Donnerstag

    Zeit Temperatur Niederschläge Wind Luftdruck Luftfeuchtigkeit
    00:00 +13°C° 0 mm 5 m/S 770 mmHg 81%
    01:00 +13°C° 0 mm 5 m/S 770 mmHg 84%
    02:00 +13°C° 0 mm 4 m/S 770 mmHg 86%
    03:00 +13°C° 0 mm 4 m/S 770 mmHg 87%
    04:00 +12°C° 0 mm 4 m/S 770 mmHg 89%
    05:00 +12°C° 0 mm 4 m/S 770 mmHg 89%
    06:00 +12°C° 0 mm 4 m/S 769 mmHg 89%
    07:00 +12°C° 0 mm 4 m/S 769 mmHg 89%
    08:00 +14°C° 0 mm 4 m/S 769 mmHg 83%
    09:00 +15°C° 0 mm 5 m/S 769 mmHg 78%
    10:00 +17°C° 0 mm 5 m/S 769 mmHg 72%
    11:00 +19°C° 0 mm 5 m/S 768 mmHg 69%
    12:00 +20°C° 0 mm 5 m/S 768 mmHg 66%
    13:00 +21°C° 0 mm 6 m/S 767 mmHg 63%
    14:00 +21°C° 0 mm 5 m/S 767 mmHg 65%
    15:00 +21°C° 0 mm 5 m/S 766 mmHg 67%
    16:00 +20°C° 0 mm 4 m/S 766 mmHg 69%
    17:00 +19°C° 0 mm 4 m/S 766 mmHg 72%
    18:00 +18°C° 0 mm 4 m/S 765 mmHg 76%
    19:00 +17°C° 0 mm 3 m/S 765 mmHg 80%
    20:00 +17°C° 0 mm 4 m/S 765 mmHg 79%
    21:00 +17°C° 0 mm 4 m/S 765 mmHg 79%
    22:00 +15°C° 0 mm 5 m/S 764 mmHg 78%
    23:00 +15°C° 0.1 mm 4 m/S 764 mmHg 81%

    28 September, Freitag

    Zeit Temperatur Niederschläge Wind Luftdruck Luftfeuchtigkeit
    00:00 +14°C° 0.1 mm 4 m/S 764 mmHg 84%
    01:00 +14°C° 0.1 mm 4 m/S 764 mmHg 86%
    02:00 +13°C° 0 mm 4 m/S 765 mmHg 84%
    03:00 +12°C° 0 mm 4 m/S 765 mmHg 82%
    04:00 +12°C° 0 mm 3 m/S 765 mmHg 79%
    05:00 +11°C° 0 mm 3 m/S 765 mmHg 80%
    06:00 +10°C° 0 mm 3 m/S 765 mmHg 80%
    07:00 +9°C° 0 mm 2 m/S 766 mmHg 80%
    08:00 +11°C° 0 mm 3 m/S 766 mmHg 71%
    09:00 +12°C° 0 mm 4 m/S 766 mmHg 62%
    10:00 +14°C° 0 mm 4 m/S 767 mmHg 53%
    11:00 +14°C° 0 mm 4 m/S 767 mmHg 52%
    12:00 +14°C° 0 mm 4 m/S 767 mmHg 50%
    13:00 +15°C° 0 mm 4 m/S 767 mmHg 49%
    14:00 +15°C° 0 mm 4 m/S 767 mmHg 49%
    15:00 +14°C° 0 mm 4 m/S 767 mmHg 50%
    16:00 +14°C° 0 mm 4 m/S 766 mmHg 51%
    17:00 +13°C° 0 mm 4 m/S 767 mmHg 55%
    18:00 +11°C° 0 mm 3 m/S 767 mmHg 60%
    19:00 +10°C° 0 mm 3 m/S 767 mmHg 64%
    20:00 +9°C° 0 mm 3 m/S 768 mmHg 66%
    21:00 +8°C° 0 mm 3 m/S 768 mmHg 69%
    22:00 +8°C° 0 mm 3 m/S 768 mmHg 71%
    23:00 +7°C° 0 mm 3 m/S 769 mmHg 72%

    29 September, Samstag

    Zeit Temperatur Niederschläge Wind Luftdruck Luftfeuchtigkeit
    00:00 +7°C° 0 mm 2 m/S 769 mmHg 74%
    01:00 +6°C° 0 mm 2 m/S 769 mmHg 75%
    02:00 +6°C° 0 mm 2 m/S 769 mmHg 76%
    03:00 +6°C° 0 mm 2 m/S 769 mmHg 76%
    04:00 +5°C° 0 mm 2 m/S 769 mmHg 76%
    05:00 +5°C° 0 mm 2 m/S 769 mmHg 76%
    06:00 +5°C° 0 mm 2 m/S 770 mmHg 76%
    07:00 +5°C° 0 mm 2 m/S 770 mmHg 76%
    08:00 +7°C° 0 mm 2 m/S 770 mmHg 67%
    09:00 +9°C° 0 mm 2 m/S 770 mmHg 58%
    10:00 +12°C° 0 mm 2 m/S 771 mmHg 50%
    11:00 +13°C° 0 mm 2 m/S 771 mmHg 46%
    12:00 +14°C° 0 mm 2 m/S 771 mmHg 43%
    13:00 +15°C° 0 mm 2 m/S 771 mmHg 39%
    14:00 +15°C° 0 mm 2 m/S 770 mmHg 39%
    15:00 +15°C° 0 mm 2 m/S 770 mmHg 40%
    16:00 +15°C° 0 mm 2 m/S 770 mmHg 40%
    17:00 +13°C° 0 mm 1 m/S 770 mmHg 47%
    18:00 +11°C° 0 mm 1 m/S 770 mmHg 54%
    19:00 +9°C° 0 mm 1 m/S 770 mmHg 61%
    20:00 +9°C° 0 mm 1 m/S 770 mmHg 66%
    21:00 +8°C° 0 mm 1 m/S 770 mmHg 70%
    22:00 +8°C° 0 mm 1 m/S 770 mmHg 74%
    23:00 +7°C° 0 mm 1 m/S 770 mmHg 76%

    30 September, Sonntag

    Zeit Temperatur Niederschläge Wind Luftdruck Luftfeuchtigkeit
    00:00 +7°C° 0 mm 1 m/S 770 mmHg 77%
    01:00 +7°C° 0 mm 1 m/S 769 mmHg 79%
    02:00 +6°C° 0 mm 1 m/S 769 mmHg 80%
    03:00 +6°C° 0 mm 1 m/S 769 mmHg 81%
    04:00 +6°C° 0 mm 1 m/S 769 mmHg 82%
    05:00 +6°C° 0 mm 1 m/S 769 mmHg 82%
    06:00 +6°C° 0 mm 1 m/S 768 mmHg 82%
    07:00 +5°C° 0 mm 2 m/S 768 mmHg 82%
    08:00 +7°C° 0 mm 2 m/S 768 mmHg 74%
    09:00 +10°C° 0 mm 2 m/S 768 mmHg 66%
    10:00 +13°C° 0 mm 2 m/S 768 mmHg 58%
    11:00 +14°C° 0 mm 2 m/S 767 mmHg 55%
    12:00 +15°C° 0 mm 2 m/S 767 mmHg 52%
    13:00 +16°C° 0 mm 2 m/S 767 mmHg 48%
    14:00 +16°C° 0 mm 2 m/S 766 mmHg 49%
    15:00 +16°C° 0 mm 2 m/S 766 mmHg 49%
    16:00 +16°C° 0 mm 2 m/S 765 mmHg 50%
    17:00 +14°C° 0 mm 2 m/S 765 mmHg 56%
    18:00 +13°C° 0 mm 2 m/S 765 mmHg 62%
    19:00 +12°C° 0 mm 2 m/S 765 mmHg 68%
    20:00 +12°C° 0 mm 2 m/S 765 mmHg 72%
    21:00 +10°C° 0 mm 2 m/S 765 mmHg 75%
    22:00 +11°C° 0 mm 1 m/S 765 mmHg 79%
    23:00 +10°C° 0 mm 2 m/S 765 mmHg 81%
    Mehr zeigen